This is the latest recevied weather packets stored in our database for station/object KI4NG. If no packets are shown the sender has not sent any weather packets the latest 10 day(s).
| Time | Temp. | Humidity | Pressure | Rain* | Wind** | Luminosity | Snow |
|---|---|---|---|---|---|---|---|
| 1777589112 | 15.56° C | 50% | 1015.3 hPa | 0 mm | - | 232 W/m² | - |
| 1777588808 | 16.11° C | 46% | 1015.3 hPa | 0 mm | - | 239 W/m² | - |
| 1777588504 | 16.11° C | 46% | 1015.1 hPa | 0 mm | - | 252 W/m² | - |
| 1777588199 | 16.11° C | 45% | 1015.1 hPa | 0 mm | - | 278 W/m² | - |
| 1777587895 | 15.56° C | 46% | 1015.3 hPa | 0 mm | - | 265 W/m² | - |
| 1777587590 | 16.11° C | 46% | 1015.1 hPa | 0 mm | - | 285 W/m² | - |
| 1777587285 | 16.67° C | 46% | 1015.3 hPa | 0 mm | - | 337 W/m² | - |
| 1777586981 | 16.11° C | 48% | 1015.2 hPa | 0 mm | - | 354 W/m² | - |
| 1777586677 | 16.11° C | 47% | 1015.3 hPa | 0 mm | - | 158 W/m² | - |
| 1777586373 | 16.67° C | 46% | 1015.2 hPa | 0 mm | - | 392 W/m² | - |
| 1777586072 | 16.11° C | 48% | 1015.2 hPa | 0 mm | - | 403 W/m² | - |
| 1777585770 | 16.67° C | 46% | 1015.2 hPa | 0 mm | - | 416 W/m² | - |
| 1777585465 | 16.67° C | 45% | 1015.1 hPa | 0 mm | - | 423 W/m² | - |
| 1777585162 | 16.11° C | 46% | 1015 hPa | 0 mm | - | 455 W/m² | - |
| 1777584857 | 16.67° C | 43% | 1015.1 hPa | 0 mm | - | 468 W/m² | - |
| 1777584555 | 16.11° C | 48% | 1015.1 hPa | 0 mm | - | 448 W/m² | - |
| 1777584251 | 16.67° C | 45% | 1015 hPa | 0 mm | - | 471 W/m² | - |
| 1777583951 | 16.11° C | 46% | 1015 hPa | 0 mm | - | 479 W/m² | - |
| 1777583647 | 16.11° C | 46% | 1015 hPa | 0 mm | - | 489 W/m² | - |
| 1777583346 | 16.67° C | 44% | 1015 hPa | 0 mm | - | 498 W/m² | - |
| 1777583041 | 16.11° C | 50% | 1015.1 hPa | 0 mm | - | 495 W/m² | - |
| 1777582738 | 16.11° C | 45% | 1014.9 hPa | 0 mm | - | 506 W/m² | - |
| 1777582433 | 16.67° C | 46% | 1015 hPa | 0 mm | - | 443 W/m² | - |
| 1777582133 | 16.11° C | 52% | 1015 hPa | 0 mm | - | 370 W/m² | - |
| 1777581826 | 16.67° C | 49% | 1015.3 hPa | 0 mm | - | 415 W/m² | - |
* Rain latest hour (hover to see other rain measurements)
** Current wind speed in m/s (hover to see current wind gust speed)